sat.trackr.live / text

‹ back to catalog

STARLINK-34548

NORAD 64716 · 2025-142W

PAYLOAD ACTIVE UNKNOWN

§ Identity

Operator
Country
US
Launch date
2025-06-28
Launch site
AFWTR
Launch vehicle
Mass (kg)
RCS (m²)

Purposes: comms

External: N2YO · Heavens-Above · Gunter

§ Orbital elements

Epoch: 2026-09-18T18:31:43.442976Z

Period
94.14 min
Inclination
70.0040°
Eccentricity
0.0002009
Mean motion
15.29590443 rev/d
Perigee alt
475.7 km
Apogee alt
478.4 km
Semi-major
6,855.2 km
B*
6.7028e-4
RAAN
185.5948°
Arg perigee
276.2842°
Mean anomaly
83.8104°
Rev number
6,843

§ Raw data

STARLINK-345481 64716U 25142W   26261.77203059  .00019194  00000+0  67028-3 0  99972 64716  70.0040 185.5948 0002009 276.2842  83.8104 15.29590443 68436

JSON: /api/v1/satellites/64716 · /tle

For live sub-satellite position, see the globe view (requires WebGL).

§ Visibility from observer

Set your observer location to see the next 7 days of passes ≥ 10°. The values pass through the URL so the page stays shareable.

No JS? Fill the form by hand. The geolocation button needs JavaScript.